Location: *
(51.1248°S, 108.4023°W)
Time: 03:57:48
(UTC+00:00)

CZ-4B R/B - Pass Details

Date: 15 June 2021
Orbit: 808 x 882 km, 99.1° (Epoch: 31 July)

Event Time Altitude Azimuth Distance (km) Brightness Sun altitude
Rises 13:18:07 0° 4° (N) 3,336 6.6 -17.4°
Reaches altitude 10° 13:20:30 10° 359° (N) 2,408 5.8 -17.0°
Maximum altitude 13:25:42 54° 281° (W) 992 3.2 -16.2°
Enters shadow 13:30:56 10° 203° (SSW) 2,423 5.2 -15.4°
